Details for Olympic Air at LGRP




Go Back


Latest METAR
Local Time

LGRP 061850Z 22006KT 9999 FEW010 SCT018 14/12 Q1015 NOSIG
06/04/2020, 22:11:02

Description
Results
Olympic Air Logo
Number of Pilots based at LGRP
0 Pilots Based here
Number of Olympic Air Flights Departed from LGRP
1 Flights Departed
Number of Olympic Air Flights Arrived at LGRP
0 Flights Arrived
Number of Olympic Air Schedules Departing from LGRP
0 Schedules
Number of Olympic Air Schedules Arriving at LGRP
0 Schedules
Number of Olympic Air Schedules Departing from LGRP availible today
0 Schedules Today
Number of Olympic Air Schedules Arriving at LGRP availible today
0 Schedules Today
Average Landing Rate at LGRP
-142 fpm
Olympic Air Average Landing Rate at LGRP
0 fpm
Total Fuel Purchased at LGRP by Olympic Air
1,102.23 kgs / 2,429.98 lbs

Pilots Based at LGRP


Pilot ID
Pilot Name
Pilot Rank
No. of Flights
No. of Flying Hours
There are no pilots assigned to this hub!   Will you be the first?